Regional Weather Roundup
Issued by NWS Sterling, VA

Home | Current Version | Previous Version | Graphics & Text | Print | Product List | Glossary On
Versions: 1 2 3 4 5 6 7 8 9 10 11 12 13 14 15 16 17 18 19 20 21 22 23 24 25 26 27
000
ASUS41 KLWX 161611
RWRLWX

REGIONAL WEATHER ROUNDUP
NATIONAL WEATHER SERVICE BALTIMORE MD/WASHINGTON DC
1100 AM EST MON JAN 16 2017

Note: "FAIR" indicates few or no clouds below 12,000 feet
with no significant weather and/or obstructions to visibility.
 TC=TEMPERATURE CELSIUS

 * =Non NWS site. Station does not report precipitation (e.g. rain,
    snow, etc.), thunder, or fog.

DCZ001-MDZ009-015-VAZ040>042-051-053>054-161700-
WASHINGTON METRO

CITY           SKY/WX    TMP DP  RH WIND       PRES   REMARKS
WASHINGTON NAT CLOUDY    42  29  59 S5        30.49S
DULLES         CLOUDY    41  28  60 S7        30.47S
ANDREWS AFB    CLOUDY    40  28  63 S6        30.46F
FT BELVOIR     CLOUDY    41  29  61 S3        30.49S
QUANTICO       CLOUDY    41  36  82 S6        30.50S
COLLEGE PARK*  CLOUDY    39  27  60 CALM      30.48F
LEESBURG*      CLOUDY    43  32  65 MISG      30.47S
MANASSAS*      CLOUDY   N/A N/A N/A S10       30.48S
GAITHERSBURG*  CLOUDY    39  25  56 S8        30.50S

$$

MDZ006>007-011-014-161700-
BALTIMORE METRO

CITY           SKY/WX    TMP DP  RH WIND       PRES   REMARKS
BWI AIRPORT    CLOUDY    37  27  67 SE3       30.47F
MD SCIENCE CTR   N/A     37  25  61 MISG      30.50S
MARTIN STATE   CLOUDY    36  30  80 SE5       30.51S
ANNAPOLIS      CLOUDY    37  27  67 SE6       30.49F
FORT MEADE*    CLOUDY    37  28  70 SE3       30.50F

$$

MDZ012-015-019>023-161700-
MARYLAND EASTERN SHORE

CITY           SKY/WX    TMP DP  RH WIND       PRES   REMARKS
OCEAN CITY     MOSUNNY   41  28  60 NE6       30.49F
SALISBURY      CLOUDY    39  28  64 CALM      30.48F
BAY BRIDGE AP* CLOUDY    37  27  65 SE3       30.49F
CAMBRIDGE*     CLOUDY    37  28  70 CALM      30.48F
EASTON*        CLOUDY    37  25  60 SE3       30.52F

$$

MDZ017>025-161700-
SOUTHERN MARYLAND

CITY           SKY/WX    TMP DP  RH WIND       PRES   REMARKS
PATUXENT RIVER CLOUDY    39  31  72 SE5       30.49F
ST INIGOES     NOT AVBL
LEONARDTOWN*   CLOUDY    39  32  75 E3        30.50S

$$

MDZ003>005-161700-
NORTH CENTRAL MARYLAND

CITY           SKY/WX    TMP DP  RH WIND       PRES   REMARKS
FREDERICK*     CLOUDY    36  28  75 CALM      30.50S
HAGERSTOWN APT CLOUDY    34  24  67 NW3       30.44S
WESTMINSTER*   CLOUDY    36  25  64 S5        30.43F

$$

MDZ501>502-161700-
WESTERN MARYLAND

CITY           SKY/WX    TMP DP  RH WIND       PRES   REMARKS
OAKLAND*         N/A     36  36 100 S6        30.30F
CUMBERLAND*    CLOUDY    37  28  70 CALM      30.44F

$$

VAZ025>031-161700-
SHENANDOAH VALLEY

CITY           SKY/WX    TMP DP  RH WIND       PRES   REMARKS
WINCHESTER*    CLOUDY    36  28  75 CALM      30.42F
FRONT ROYAL*   NOT AVBL
LURAY*         CLOUDY    41  34  75 CALM      30.40F
NEW MARKET*    CLOUDY    40  29  65 CALM      30.40F
STAUNTON*      CLOUDY    41  38  90 S6        30.42F
WAYNESBORO*    CLOUDY    40  39  95 E5        30.41S

$$

WVZ021-048>050-054>055-161700-
EASTERN WEST VIRGINIA PANHANDLE

CITY           SKY/WX    TMP DP  RH WIND       PRES   REMARKS
MARTINSBURG    CLOUDY    37  26  64 CALM      30.43S
PETERSBURG*    CLOUDY    39  32  75 CALM      30.41S

$$

VAZ036>039-050-161700-
CENTRAL FOOTHILLS

CITY           SKY/WX    TMP DP  RH WIND       PRES   REMARKS
CHARLOTTESVILL CLOUDY    42  40  92 S6        30.45S FOG
CULPEPER*      CLOUDY    42  38  87 S3        30.47F
ORANGE*          N/A     41  41 100 SE3       30.47F
GORDONSVILLE*  CLOUDY    40  40 100 S6        30.46S FOG
WARRENTON*     CLOUDY    42  34  72 S5        30.46F

$$

VAZ055>057-161700-
NORTH AND CENTRAL PIEDMONT

CITY           SKY/WX    TMP DP  RH WIND       PRES   REMARKS
FREDERICKSBRG* CLOUDY    42  36  81 S5        30.48F
STAFFORD*      CLOUDY    40  33  75 CALM      30.52F

$$

NCZ024-NYZ072-PAZ021-071-VAZ022-071-161700-
OTHER REGIONAL OBSERVATIONS

CITY           SKY/WX    TMP DP  RH WIND       PRES   REMARKS
NEW YORK CITY  SUNNY     36  21  54 VRB3      30.48F
PHILADELPHIA   PTSUNNY   37  22  54 CALM      30.49F
PITTSBURGH     CLOUDY    32  24  72 E5        30.32F
ROANOKE        CLOUDY    41  38  89 SE5       30.45S
RICHMOND       CLOUDY    40  36  86 CALM      30.49S
RALEIGH        CLOUDY    47  23  38 E6        30.46R

$$

ANZ530>537-161700-
MARINE OBSERVATIONS

STATION/POSITION TIME  TEMP    WIND        PRES
                       AIR SEA DIR/SP/G
                 (UTC) (F)     (DEG/KT/KT) (MB)
THOMAS PT LIGHT  1600   36 38  140/  4/  4   N/A
BALT KEY BRIDGE  1548   34     110/  5/  7 1032.5F
COVE POINT       1548   37     190/  4/  4 1033.1F
LEWISETTA        1548   39 42  110/  4/  5 1032.2F
SOLOMONS ISLAND  1536   38 41   70/  5/  6   N/A
PINEY POINT      1542          140/  4/  4   N/A

$$





USA.gov is the U.S. government's official web portal to all federal, state and local government web resources and services.